Weather History for KSHL - March, 2013

Change the Weather History Date:

Sunday, March 24, 2013

  Actual Average Record
Temperature  
Mean Temperature 26 °F -  
Max Temperature 30 °F 47 °F 81 °F (1967)
Min Temperature 23 °F 26 °F -5 °F (1974)
Degree Days  
Heating Degree Days 38    
Moisture  
Dew Point 22 °F    
Average Humidity 86    
Maximum Humidity 100    
Minimum Humidity 69    
Precipitation  
Precipitation 0.00 in - - ()
Sea Level Pressure  
Sea Level Pressure 30.04 in    
Wind  
Wind Speed 15 mph (NNW)    
Max Wind Speed 22 mph    
Max Gust Speed 28 mph    
Visibility 7 miles    
Events Rain , Snow    
Averages and records for this station are not official NWS values.
T = Trace of Precipitation, MM = Missing Value Source: NWS Daily Summary

Daily Weather History Graph

Daily Weather History Graph

Search for Another Location

Airport or City:

Trip Planner

Search our weather history database for the weather conditions in past years. The results will help you decide how hot, cold, wet, or windy it might be!

Date:

Astronomy

Mar. 24, 2013 Rise Set
Actual Time 7:18 AM CDT 7:40 PM CDT
Civil Twilight 6:50 AM CDT 8:09 PM CDT
Nautical Twilight 6:16 AM CDT 8:42 PM CDT
Astronomical Twilight 5:42 AM CDT 9:17 PM CDT
Moon 5:06 PM CDT (3/24) 5:33 AM CDT (3/24)
Length of Visible Light 13h 18m
Length of Day
12h 21m
Waxing Gibbous, 92% of the Moon is Illuminated
Mar 24
Waxing Gibbous
Mar 27
Full
Apr 2
Last Quarter
Apr 10
New
Apr 18
First Quarter

Hourly Weather History & Observations

Time (CDT) Temp. Windchill Dew Point Humidity Pressure Visibility Wind Dir Wind Speed Gust Speed Precip Events Conditions
12:15 AM 26.6 °F 15.2 °F 19.4 °F 74% 30.10 in 10.0 mi North 13.8 mph - N/A   Light Freezing Rain
12:35 AM 26.6 °F 14.3 °F 21.2 °F 80% 30.09 in 10.0 mi North 16.1 mph - N/A   Overcast
12:55 AM 26.6 °F 14.7 °F 21.2 °F 80% 30.09 in 8.0 mi North 15.0 mph - N/A Rain Light Freezing Rain
1:15 AM 24.8 °F 13.4 °F 23.0 °F 93% 30.10 in 5.0 mi North 12.7 mph - N/A   Overcast
1:35 AM 24.8 °F 12.9 °F 23.0 °F 93% 30.10 in 7.0 mi North 13.8 mph - N/A Rain Light Freezing Rain
1:55 AM 24.8 °F 13.4 °F 21.2 °F 86% 30.10 in 9.0 mi North 12.7 mph - N/A   Light Freezing Rain
2:15 AM 24.8 °F 13.4 °F 21.2 °F 86% 30.10 in 10.0 mi North 12.7 mph - N/A Rain Light Freezing Rain
2:35 AM 24.8 °F 12.9 °F 21.2 °F 86% 30.10 in 10.0 mi North 13.8 mph - N/A   Overcast
2:55 AM 24.8 °F 12.4 °F 21.2 °F 86% 30.09 in 9.0 mi North 15.0 mph - N/A   Light Freezing Rain
3:15 AM 24.8 °F 12.4 °F 23.0 °F 93% 30.09 in 2.5 mi North 15.0 mph - N/A   Mostly Cloudy
3:35 AM 24.8 °F 13.4 °F 23.0 °F 93% 30.08 in 2.0 mi North 12.7 mph 19.6 mph N/A   Overcast
3:55 AM 24.8 °F 14.0 °F 23.0 °F 93% 30.08 in 3.0 mi North 11.5 mph - N/A   Overcast
4:15 AM 24.8 °F 12.9 °F 21.2 °F 86% 30.07 in 3.0 mi North 13.8 mph - N/A   Overcast
4:35 AM 24.8 °F 13.4 °F 21.2 °F 86% 30.07 in 9.0 mi NNW 12.7 mph - N/A   Overcast
4:55 AM 23.0 °F 11.1 °F 21.2 °F 93% 30.06 in 9.0 mi North 12.7 mph - N/A   Light Freezing Rain
5:15 AM 23.0 °F 11.7 °F 21.2 °F 93% 30.06 in - North 11.5 mph 17.3 mph N/A   Unknown
5:35 AM 23.0 °F 10.1 °F 19.4 °F 86% 30.05 in 9.0 mi NNW 15.0 mph - N/A   Overcast
5:55 AM 23.0 °F 10.6 °F 19.4 °F 86% 30.05 in 9.0 mi NNW 13.8 mph - N/A   Overcast
6:15 AM 23.0 °F 11.1 °F 19.4 °F 86% 30.05 in 9.0 mi NNW 12.7 mph - N/A   Overcast
6:35 AM 23.0 °F 11.1 °F 19.4 °F 86% 30.05 in 10.0 mi NNW 12.7 mph - N/A   Overcast
7:15 AM 23.0 °F 11.7 °F 19.4 °F 86% 30.06 in 9.0 mi NNW 11.5 mph - N/A   Overcast
7:35 AM 23.0 °F 10.1 °F 19.4 °F 86% 30.05 in 9.0 mi NNW 15.0 mph - N/A   Overcast
7:55 AM 23.0 °F 9.2 °F 19.4 °F 86% 30.05 in 9.0 mi NNW 17.3 mph - N/A   Overcast
8:15 AM 23.0 °F 10.6 °F 19.4 °F 86% 30.05 in 9.0 mi North 13.8 mph - N/A   Overcast
8:35 AM 23.0 °F 8.3 °F 19.4 °F 86% 30.04 in 10.0 mi NNW 19.6 mph - N/A   Overcast
8:55 AM 23.0 °F 8.7 °F 19.4 °F 86% 30.04 in 10.0 mi NNW 18.4 mph - N/A   Overcast
9:15 AM 23.0 °F 8.7 °F 17.6 °F 80% 30.04 in 10.0 mi NNW 18.4 mph - N/A   Overcast
9:35 AM 23.0 °F 8.7 °F 19.4 °F 86% 30.04 in 10.0 mi NNW 18.4 mph - N/A   Overcast
9:55 AM 24.8 °F 11.9 °F 19.4 °F 80% 30.04 in 10.0 mi NNW 16.1 mph - N/A   Overcast
10:15 AM 24.8 °F 12.4 °F 19.4 °F 80% 30.04 in 10.0 mi NNW 15.0 mph - N/A   Overcast
10:35 AM 24.8 °F 11.9 °F 19.4 °F 80% 30.04 in 10.0 mi NNW 16.1 mph - N/A   Overcast
10:55 AM 24.8 °F 11.5 °F 19.4 °F 80% 30.03 in 10.0 mi NNW 17.3 mph - N/A   Overcast
11:15 AM 26.6 °F 13.8 °F 21.2 °F 80% 30.03 in 8.0 mi NNW 17.3 mph - N/A Rain Light Freezing Rain
11:35 AM 26.6 °F 15.2 °F 21.2 °F 80% 30.03 in 6.0 mi NNW 13.8 mph 19.6 mph N/A Snow Light Snow
11:55 AM 26.6 °F 13.8 °F 19.4 °F 74% 30.02 in 7.0 mi NNW 17.3 mph - N/A   Overcast
12:15 PM 26.6 °F 15.7 °F 21.2 °F 80% 30.02 in 9.0 mi NNW 12.7 mph 19.6 mph N/A Rain Light Freezing Rain
12:35 PM 28.4 °F 17.0 °F 19.4 °F 69% 30.02 in 10.0 mi NNW 15.0 mph - N/A Rain Light Freezing Rain
12:55 PM 28.4 °F 17.0 °F 19.4 °F 69% 30.02 in 10.0 mi NNW 15.0 mph - N/A   Overcast
1:15 PM 28.4 °F 16.6 °F 21.2 °F 74% 30.01 in 10.0 mi NNW 16.1 mph - N/A Rain Light Freezing Rain
1:35 PM 28.4 °F 16.2 °F 23.0 °F 80% 30.01 in 2.0 mi NNW 17.3 mph - N/A Snow Light Snow
1:55 PM 30.2 °F 18.5 °F 23.0 °F 75% 30.00 in 3.0 mi NNW 17.3 mph - N/A Snow Light Snow
2:15 PM 30.2 °F 18.5 °F 23.0 °F 75% 29.99 in 7.0 mi NNW 17.3 mph - N/A Snow Light Snow
2:35 PM 30.2 °F 18.5 °F 23.0 °F 75% 29.99 in 10.0 mi NNW 17.3 mph - N/A Rain Light Freezing Rain
2:55 PM 30.2 °F 18.9 °F 23.0 °F 75% 29.98 in 10.0 mi NW 16.1 mph - N/A   Light Freezing Rain
3:15 PM 30.2 °F 18.1 °F 23.0 °F 75% 29.98 in 8.0 mi NNW 18.4 mph - N/A Rain Light Freezing Rain
3:35 PM 30.2 °F 18.5 °F 23.0 °F 75% 29.98 in 10.0 mi NNW 17.3 mph 24.2 mph N/A   Overcast
3:55 PM 30.2 °F 18.5 °F 23.0 °F 75% 29.98 in 10.0 mi NW 17.3 mph 23.0 mph N/A   Overcast
4:15 PM 30.2 °F 17.1 °F 23.0 °F 75% 29.97 in 9.0 mi NNW 21.9 mph - N/A   Light Freezing Rain
4:35 PM 30.2 °F 18.9 °F 23.0 °F 75% 29.98 in 7.0 mi NNW 16.1 mph 24.2 mph N/A   Light Freezing Rain
4:55 PM 30.2 °F 18.1 °F 24.8 °F 80% 29.98 in 9.0 mi NNW 18.4 mph - N/A   Light Freezing Rain
5:15 PM 30.2 °F 18.1 °F 24.8 °F 80% 29.98 in 2.5 mi NNW 18.4 mph - N/A   Light Freezing Rain
5:35 PM 30.2 °F 18.9 °F 26.6 °F 86% 29.99 in 6.0 mi NNW 16.1 mph - N/A   Overcast
5:55 PM 30.2 °F 18.1 °F 26.6 °F 86% 29.99 in 6.0 mi NNW 18.4 mph - N/A Snow Light Snow
6:15 PM 30.2 °F 18.9 °F 26.6 °F 86% 29.99 in 5.0 mi NNW 16.1 mph - N/A Snow Light Snow
6:35 PM 28.4 °F 15.4 °F 26.6 °F 93% 30.00 in 1.2 mi North 19.6 mph - N/A Rain Light Freezing Rain
6:55 PM 28.4 °F 15.4 °F 26.6 °F 93% 30.00 in 1.5 mi North 19.6 mph - N/A   Overcast
7:15 PM 28.4 °F 15.4 °F 26.6 °F 93% 30.01 in 1.5 mi North 19.6 mph - N/A Rain Light Freezing Rain
7:35 PM 26.6 °F 13.8 °F 26.6 °F 100% 30.02 in 2.0 mi North 17.3 mph - N/A   Overcast
7:55 PM 28.4 °F 18.5 °F 26.6 °F 93% 30.02 in 2.5 mi North 11.5 mph - N/A Rain Light Freezing Rain
8:15 PM 26.6 °F 16.2 °F 26.6 °F 100% 30.03 in 6.0 mi North 11.5 mph - N/A   Light Freezing Rain
8:35 PM 26.6 °F 15.7 °F 26.6 °F 100% 30.03 in 4.0 mi North 12.7 mph - N/A Rain Light Freezing Rain
8:55 PM 26.6 °F 16.2 °F 26.6 °F 100% 30.04 in 3.0 mi North 11.5 mph - N/A Rain Light Freezing Rain
9:15 PM 26.6 °F 15.2 °F 26.6 °F 100% 30.04 in 3.0 mi NNW 13.8 mph - N/A   Overcast
9:35 PM 26.6 °F 15.2 °F 26.6 °F 100% 30.04 in 3.0 mi NNW 13.8 mph - N/A Rain Light Freezing Rain
9:55 PM - - - N/A% 30.05 in 1.8 mi NNW 13.8 mph - N/A   Unknown
10:15 PM 26.6 °F 12.4 °F 26.6 °F 100% 30.05 in 2.0 mi North 21.9 mph - N/A Rain Light Freezing Rain
10:35 PM 26.6 °F 13.4 °F 26.6 °F 100% 30.05 in 3.0 mi North 18.4 mph 24.2 mph N/A Rain Light Freezing Rain
10:55 PM 26.6 °F 12.4 °F 24.8 °F 93% 30.05 in 3.0 mi North 21.9 mph 27.6 mph N/A Rain Light Freezing Rain
11:15 PM 26.6 °F 12.7 °F 24.8 °F 93% 30.05 in 4.0 mi North 20.7 mph - N/A Rain Light Freezing Rain
11:35 PM 24.8 °F 10.7 °F 23.0 °F 93% 30.06 in 3.0 mi NNW 19.6 mph - N/A Rain Light Freezing Rain
11:55 PM 24.8 °F 11.9 °F 23.0 °F 93% 30.06 in 4.0 mi NNW 16.1 mph 23.0 mph N/A Rain Light Freezing Rain